#timestamp,LO_Frequency,Hit,StdDev 
1645070415.1,286047003.0,N
1645070435.8,286046999.1,N
1645070455.7,286046998.3,N
1645070475.5,286046997.3,N
1645070495.4,286046996.5,N
1645070515.2,286047002.2,N
1645070535.0,286047006.3,N
1645070535.9,286047006.3,N
1645070555.8,286047010.4,N
1645070575.6,286047016.6,Y
1645070595.4,286047015.7,P
1645070615.3,286047015.9,N
1645070635.1,286047009.9,N
1645070655.9,286047010.4,N
1645070675.7,286047004.9,N
1645070695.5,286047005.6,N
1645070715.4,286047008.5,N
1645070735.2,286047010.3,N
1645070755.0,286047009.1,N
1645070755.9,286047009.1,N
1645070775.8,286047010.8,N
1645070795.6,286047013.1,Y
1645070815.5,286047007.4,P
1645070835.3,286047006.0,P
1645070855.1,286047008.5,P
1645070875.9,286047008.7,Y
1645070895.7,286046996.2,P
1645070915.6,286046992.9,N
1645070935.4,286046996.9,N
1645070955.2,286046995.2,N
1645070975.1,286046992.9,N
1645070976.0,286046992.9,N
1645070995.8,286046987.0,N
1645071015.6,286046995.3,N
1645071035.5,286046999.0,N
1645071055.3,286046996.5,N
1645071075.2,286047000.5,N
1645071095.9,286046996.2,N
1645071115.7,286046989.8,N
1645071135.6,286046990.2,N
1645071155.4,286046994.2,N
1645071175.2,286046993.5,N
1645071195.1,286046991.7,N
1645071196.0,286046991.7,N
1645071215.8,286046997.9,N
1645071235.7,286046996.5,N
1645071255.5,286046995.5,N
1645071275.3,286046995.7,N
1645071295.2,286046992.9,N
1645071315.0,286046995.6,N
1645071315.9,286046995.6,N
1645071335.7,286046996.2,N
1645071355.6,286046997.0,N
1645071375.4,286047002.7,N
1645071395.3,286047004.0,N
1645071415.1,286047002.8,N
1645071416.0,286047002.8,N
1645071435.8,286047000.2,N
1645071455.7,286047003.1,N
1645071475.5,286047000.1,N
1645071495.4,286047006.0,N
1645071515.2,286047005.4,N
1645071535.0,286047002.8,N
1645071535.9,286047002.8,N
1645071555.8,286046999.4,N
1645071575.6,286046996.4,N
1645071595.4,286046994.9,N
1645071615.3,286046998.1,N
1645071635.1,286046997.0,N
1645071655.9,286046999.6,N
1645071675.7,286046995.3,N
1645071695.5,286046998.0,N
1645071715.4,286046991.5,N
1645071735.2,286046992.8,N
1645071755.0,286046993.5,N
1645071756.0,286046993.5,N
1645071775.8,286046997.7,N
1645071795.6,286046993.0,N
1645071815.5,286046989.0,N
1645071835.3,286046994.0,N
1645071855.1,286046998.6,N
1645071875.9,286047001.9,N
1645071895.7,286047000.1,N
1645071915.6,286047002.8,N
1645071935.4,286047002.9,N
1645071955.2,286047004.0,N
1645071975.1,286047004.0,N
1645071976.0,286047004.0,N
1645071995.8,286047003.4,N
1645072015.6,286047002.6,N
1645072035.5,286047000.2,N
1645072055.3,286047001.3,N
1645072075.2,286047004.2,N
1645072095.9,286047003.2,N
1645072115.7,286047006.6,N
1645072135.6,286047005.1,N
1645072155.4,286047007.0,N
1645072175.2,286047005.9,N
1645072195.1,286046996.9,N
1645072196.0,286046996.9,N
1645072215.8,286046995.8,N
1645072235.7,286046993.0,N
1645072255.5,286046988.5,N
1645072275.3,286046984.8,N
1645072295.2,286046980.7,Y
1645072315.0,286046982.7,P
1645072315.9,286046982.7,N
1645072335.8,286046981.8,N
1645072355.6,286046978.0,Y
1645072375.4,286046987.4,P
1645072395.3,286046992.2,P
1645072415.1,286046995.2,N
1645072435.8,286046998.3,N
1645072455.7,286047000.8,N
1645072475.5,286046999.5,N
1645072495.4,286046998.8,N
1645072515.2,286046996.0,N
1645072535.0,286046998.3,N
1645072535.9,286046998.3,N
1645072555.8,286046997.4,N
1645072575.6,286046997.5,N
1645072595.4,286046990.4,N
1645072615.3,286046991.7,N
1645072635.1,286046995.4,N
1645072655.9,286046997.7,N
1645072675.7,286046998.1,N
1645072695.5,286046999.6,N
1645072715.4,286047001.1,N
1645072735.2,286046994.2,N
1645072755.0,286046996.3,N
1645072755.9,286046996.3,N
1645072775.8,286046996.5,N
1645072795.6,286046997.2,N
1645072815.5,286046990.5,N
1645072835.3,286046994.7,N
1645072855.1,286046996.2,N
1645072875.9,286046998.0,N
1645072895.7,286046999.6,N
1645072915.5,286047001.2,N
1645072935.4,286047001.8,N
1645072955.2,286047000.0,N
1645072975.1,286047003.9,N
1645072976.0,286047003.9,N
1645072995.8,286047005.5,N
1645073015.6,286047000.9,N
1645073035.5,286046997.1,N
1645073055.3,286046999.3,N
1645073075.1,286046995.7,N
1645073095.9,286046998.6,N
1645073115.7,286047001.5,N
1645073135.6,286047002.3,N
1645073155.4,286046999.7,N
1645073175.2,286046999.3,N
1645073195.1,286046995.6,N
1645073196.0,286046995.6,N
1645073215.8,286046995.2,N
1645073235.6,286046996.6,N
1645073255.5,286047000.8,N
1645073275.3,286047003.1,N
1645073295.2,286047011.9,Y
1645073315.0,286047012.0,P
1645073315.9,286047012.0,N
1645073335.7,286047002.5,N
1645073355.6,286046996.0,N
1645073375.4,286046994.3,N
1645073395.3,286046991.2,N
1645073415.1,286046990.3,N
1645073416.0,286046990.3,N
1645073435.8,286046991.1,N
1645073455.7,286046987.3,N
1645073475.5,286046989.2,N
1645073495.3,286046990.9,N
1645073515.2,286046988.9,N
1645073535.0,286046988.5,N
1645073535.9,286046988.5,N
1645073555.8,286046991.3,N
1645073575.6,286046990.4,N
1645073595.4,286046994.9,N
1645073615.3,286046999.8,N
1645073635.1,286047000.3,N
1645073655.9,286046991.7,N
1645073675.7,286046990.0,N
1645073695.5,286046998.0,N
1645073715.4,286046994.8,N
1645073735.2,286046989.1,N
1645073755.0,286046990.4,N
1645073755.9,286046990.4,N
1645073805.8,286046995.1,E
1645073815.7,286046999.7,N
1645073835.6,286047004.7,P
1645073855.4,286047004.2,N
1645073875.2,286047006.4,N
1645073895.1,286047009.0,Y
1645073896.0,286047009.0,P
1645073915.8,286047005.8,N
1645073935.6,286047005.2,N
1645073955.5,286047005.3,N
1645073975.3,286047005.1,N
1645073995.2,286047003.7,N
